I2HLY-4 Weather Reports


Display with metric or nautical units.
time (UTC)temp
F
wind
direction
speed
MPH
gust
MPH
rain 1hr
in
rain 24hr
in
rain mn
in
humidity
%
barometer
mb
20260507191714 48 68 2.0 5.0 0.00 0.31 0.07 87 1015.6
20260507190213 48 91 3.0 4.0 0.00 0.35 0.07 87 1015.4
20260507184727 49 73 2.0 5.0 0.00 0.35 0.07 86 1015.4
20260507183223 49 82 2.0 4.0 0.00 0.35 0.07 84 1015.2
20260507181721 50 71 3.0 6.0 0.00 0.35 0.07 83 1015.0
20260507180216 51 46 3.0 6.0 0.00 0.67 0.07 80 1014.8
20260507174712 51 28 3.0 10.0 0.00 0.67 0.07 80 1014.7
20260507173226 51 53 7.0 12.0 0.00 0.67 0.07 79 1014.6
20260507171721 51 42 5.0 16.0 0.00 0.67 0.07 80 1014.5
20260507170221 52 53 3.0 10.0 0.00 2.05 0.07 79 1014.7
20260507164716 54 39 1.0 9.0 0.00 2.05 0.07 81 1014.4
20260507163229 54 132 0.0 0.0 0.00 2.05 0.07 78 1014.5
20260507161728 55 243 1.0 4.0 0.00 2.05 0.07 81 1014.3
20260507160222 56 265 0.0 5.0 0.00 2.32 0.07 77 1014.3
20260507154718 56 172 0.0 3.0 0.00 2.32 0.07 74 1014.2
20260507153215 57 258 1.0 5.0 0.00 2.32 0.07 74 1014.0
20260507151711 57 184 0.0 0.0 0.00 2.32 0.07 71 1013.9
20260507150230 57 204 2.0 4.0 0.00 2.32 0.07 71 1014.0
20260507144723 57 198 1.0 4.0 0.00 2.32 0.07 69 1014.0
20260507141719 57 171 2.0 4.0 0.00 2.32 0.07 67 1014.1
20260507140215 58 218 1.0 7.0 0.00 2.32 0.07 68 1014.1
20260507134728 57 240 3.0 5.0 0.00 2.32 0.07 68 1014.2
20260507133229 57 235 2.0 4.0 0.00 2.32 0.07 68 1014.3
20260507131723 57 277 2.0 11.0 0.00 2.32 0.07 67 1014.3
20260507130222 57 232 3.0 7.0 0.00 2.36 0.07 64 1014.3
20260507124717 56 219 2.0 8.0 0.00 2.36 0.07 67 1014.4
20260507123229 56 256 2.0 6.0 0.00 2.36 0.07 67 1014.5
20260507121730 56 228 4.0 8.0 0.00 2.36 0.07 69 1014.4
20260507120222 56 153 2.0 7.0 0.00 2.36 0.07 69 1014.4
20260507114714 57 231 2.0 7.0 0.00 2.36 0.07 66 1014.5
20260507113211 57 235 3.0 10.0 0.00 2.36 0.07 69 1014.6
20260507111724 57 216 4.0 11.0 0.00 2.36 0.07 70 1014.6
20260507110219 57 221 3.0 12.0 0.00 2.36 0.07 72 1014.7
20260507104721 57 205 4.0 9.0 0.00 2.36 0.07 72 1014.7
20260507103218 56 124 6.0 11.0 0.00 2.36 0.07 71 1014.7
20260507101716 56 180 4.0 8.0 0.00 2.36 0.07 70 1014.7
20260507100213 55 313 4.0 8.0 0.00 2.56 0.07 75 1014.8
20260507094725 56 172 3.0 7.0 0.00 2.56 0.07 72 1014.5
20260507093224 55 229 2.0 7.0 0.00 2.56 0.07 74 1014.6
20260507091718 54 229 2.0 7.0 0.00 2.56 0.07 77 1014.5
20260507090213 53 223 3.0 8.0 0.00 2.68 0.07 83 1014.7
20260507084715 52 261 3.0 7.0 0.00 2.68 0.07 85 1014.7
20260507083212 52 189 4.0 8.0 0.00 2.68 0.07 84 1014.7
20260507081710 51 211 3.0 6.0 0.00 2.68 0.07 84 1014.6
20260507080225 50 250 4.0 5.0 0.00 2.68 0.07 92 1014.4
20260507074721 49 209 0.0 4.0 0.00 2.68 0.07 94 1014.4
20260507073217 48 302 1.0 2.0 0.00 2.68 0.07 95 1014.3
20260507071712 47 204 1.0 3.0 0.00 2.68 0.07 95 1014.3
20260507070222 47 9 0.0 3.0 0.00 2.68 0.07 95 1014.0
20260507064721 46 36 1.0 3.0 0.00 2.68 0.07 97 1013.7
20260507063218 45 307 0.0 0.0 0.00 2.68 0.07 96 1013.7
20260507061717 45 307 0.0 0.0 0.00 2.68 0.07 97 1013.7
20260507060212 44 319 0.0 0.0 0.00 3.03 0.07 97 1013.7
20260507054728 43 319 0.0 2.0 0.00 3.03 0.07 96 1013.6
20260507053229 43 36 0.0 5.0 0.00 3.03 0.07 97 1013.5
20260507051722 42 50 3.0 6.0 0.00 3.03 0.07 96 1013.2
20260507050218 42 51 2.0 4.0 0.00 3.19 0.07 96 1013.2
20260507044719 42 31 1.0 5.0 0.00 3.19 0.07 96 1013.1
20260507043215 42 93 1.0 4.0 0.00 3.19 0.07 96 1013.1
20260507041717 42 49 1.0 4.0 0.08 3.19 0.07 96 1012.8
20260507040211 42 35 3.0 6.0 0.08 3.19 0.07 96 1012.8
20260507034725 42 55 3.0 6.0 0.08 3.19 0.07 96 1012.9
20260507033224 43 52 3.0 4.0 0.08 3.19 0.07 96 1013.1
20260507031719 43 27 1.0 2.0 0.04 3.11 0.05 95 1013.2
20260507030215 43 67 2.0 5.0 0.12 3.11 0.05 96 1012.9
20260507024730 44 66 3.0 4.0 0.16 3.11 0.05 96 1013.1
20260507023226 44 12 1.0 3.0 0.20 3.11 0.05 96 1012.9
20260507021722 44 293 0.0 0.0 0.16 3.07 0.04 96 1013.1
20260507020219 44 81 0.0 0.0 0.08 3.15 0.02 96 1012.8
20260507014713 44 81 0.0 2.0 0.04 3.11 0.01 96 1012.4
20260507013214 44 81 0.0 2.0 0.00 3.07 0.00 96 1012.3
20260507011731 44 58 2.0 5.0 0.00 3.07 0.00 96 1011.9
20260507004713 44 60 0.0 4.0 0.00 3.27 0.00 96 1012.1
20260507003226 44 51 3.0 5.0 0.00 3.27 0.00 96 1012.4
20260507001728 44 65 0.0 2.0 0.00 3.27 0.00 96 1012.4
20260506234725 44 56 2.0 5.0 0.00 3.43 0.00 97 1012.4
20260506233227 43 59 3.0 4.0 0.00 3.43 0.00 97 1012.4
20260506231730 43 77 1.0 4.0 0.00 3.43 0.00 96 1012.4
20260506230211 44 70 2.0 3.0 0.00 3.43 0.00 96 1012.4
20260506224717 44 345 0.0 5.0 0.00 3.43 0.00 96 1012.3
20260506223218 44 37 4.0 6.0 0.00 3.43 0.00 96 1012.2
20260506221720 44 62 1.0 4.0 0.04 3.43 0.00 96 1012.4
20260506220225 44 53 5.0 11.0 0.04 3.62 0.87 95 1012.3
20260506214724 44 42 3.0 6.0 0.04 3.62 0.87 95 1012.2
20260506213209 44 74 3.0 5.0 0.04 3.62 0.87 95 1012.5
20260506211710 44 84 2.0 6.0 0.00 3.58 0.86 95 1012.5
20260506210211 44 50 4.0 10.0 0.00 3.90 0.86 95 1012.4
20260506204717 44 42 4.0 9.0 0.00 3.90 0.86 95 1012.4
20260506203218 44 58 3.0 8.0 0.00 3.90 0.86 95 1012.5
20260506201722 44 57 4.0 7.0 0.00 3.90 0.86 95 1012.5
20260506200223 44 39 2.0 7.0 0.00 3.94 0.86 95 1012.7
20260506194724 44 288 4.0 11.0 0.00 3.94 0.86 95 1012.5
20260506193210 44 44 4.0 10.0 0.00 3.94 0.86 95 1011.9